SCP
-0 0 -0 -0 0 0 0 -0 -0 0 0 -0 -0 -0 0 -0 -0 -0 -0 -0 -0 -0 -0 -0 -0 -0 -0 -0 -0 -0 -0 -0 -0 -0 -0 0 -0 0 0 -0 0 0 0 0
-0 0 -0 -0 0 0 0 -0 -0 -0 0 -0 -0 -0 0 -0 -0 -0 -0 -0 -0 -0 -0 -0 -0 -0 -0 -0 -0 -0 -0 -0 -0 -0 -0 0 -0 0 0 0 0 0 0 0
-0 -0 0 0 0 -0 -0 -0 -0 0 -0 -0 0 -0 0 0 0 0 0 -0 -0 -0 -0 -0 -0 -0 -0 -0 -0 -0 -0 -0 -0 0 0 -0 0 -0 -0 0 0 0 0 0
-0 0 0 0 0 0 -0 -0 0 0 -0 -0 0 0 0 -0 0 -0 0 -0 -0 -0 -0 -0 -0 -0 -0 -0 -0 -0 -0 -0 -0 0 0 -0 -0 -0 0 0 0 0 0 0
0 0 -0 -0 0 0 -0 0 0 0 -0 -0 0 0 0 -0 0 0 0 -0 0 -0 -0 -0 -0 -0 -0 -0 -0 -0 -0 -0 0 -0 -0 -0 -0 0 -0 -0 -0 0 0 -0
-0 0 0 -0 0 -0 0 -0 0 0 0 0 -0 0 -0 0 0 0 0 0 -0 -0 -0 -0 -0 -0 -0 -0 -0 -0 -1 -1 -0 -0 -0 -0 -0 -0 -0 -0 0 0 -0 -0
0 -0 -0 0 -0 -0 0 -0 0 -0 -0 -0 -0 0 0 0 0 0 0 0 0 -0 -0 -0 -0 -0 -0 -0 -0 -0 -1 -1 -1 -1 -0 -1 -0 -0 0 0 0 0 0 -0
-0 0 -0 0 -0 -0 -0 -0 -0 -0 0 0 0 0 0 0 0 0 0 0 -0 0 -0 -0 -0 -0 -0 -0 -0 -0 -1 -1 -1 -1 -1 -1 -1 -0 -0 -0 0 -0 -0 -0
-0 0 0 -0 0 -0 -0 -0 -0 -0 -0 0 0 0 0 0 0 0 0 0 0 0 -0 -0 -0 -0 -0 -0 -0 -1 -1 -1 -1 -1 -0 -1 -0 -0 -0 -0 -0 -0 0 -0
0 -0 0 0 0 -0 -0 -0 -0 -0 -0 -0 0 0 0 0 0 0 0 0 0 0 -0 -0 -0 -0 -0 -0 -0 -0 -1 -1 -1 -0 -0 -0 -0 -0 -0 -0 -0 -0 -0 0
-0 -0 0 0 0 -0 0 -0 -0 -0 0 -0 -0 0 0 0 0 0 0 0 0 0 0 0 0 -0 -0 -0 -0 -0 -0 -0 -0 -0 -0 -0 -0 -0 -0 -0 -0 -0 -0 -0
0 0 -0 -0 0 0 -0 -0 -0 0 -0 -0 0 0 0 0 0 0 0 0 0 0 1 1 0 -0 -0 -0 -0 -0 -0 -0 -0 -0 -0 -0 -0 -0 -0 -0 -0 -0 -0 -0
-0 0 -0 0 -0 0 -0 0 -0 -0 -0 0 0 0 0 0 0 0 0 0 0 0 0 1 1 0 0 0 0 0 0 0 0 0 0 -0 -0 -0 -0 -0 -0 -0 -0 -0
0 -0 -0 0 0 0 0 0 0 -0 0 -0 -0 0 0 0 0 0 0 0 0 0 -0 1 0 1 1 1 0 1 1 0 0 0 0 0 0 0 -0 -0 -0 -0 -1 -1
0 0 0 0 0 -0 -0 -0 -0 -0 -0 -0 -0 0 0 0 0 0 0 0 0 1 1 0 0 0 1 2 2 1 1 2 3 1 1 1 1 0 0 -0 0 -0 -0 -1
0 0 0 -0 -0 -0 0 0 0 0 0 -0 0 0 0 0 0 0 0 0 0 0 1 1 1 1 1 1 1 2 3 3 3 2 2 3 2 1 1 0 0 1 1 0
0 0 -0 0 -0 -0 -0 0 0 -0 -0 -0 -0 0 0 0 0 0 0 1 1 1 1 1 0 0 0 0 0 0 1 1 2 1 0 1 2 0 1 1 1 1 1 2
-0 -0 -0 -0 -0 -0 0 0 0 0 0 0 0 0 0 0 0 0 0 0 1 1 2 2 1 1 1 1 1 1 0 1 1 1 0 1 0 -1 0 1 1 1 1 2
0 -0 -0 -0 -0 -0 0 0 0 0 0 0 0 0 0 0 0 0 1 1 1 1 1 1 1 2 1 1 1 2 2 2 1 -0 0 0 1 1 1 1 2 2 2 2
0 0 0 0 0 0 0 0 0 0 0 0 0 0 0 0 0 1 1 1 0 1 0 0 1 1 1 1 1 1 1 0 0 0 1 1 2 1 1 1 1 3 3 3
0 0 0 0 0 0 0 0 0 0 0 0 0 0 0 0 0 1 0 1 1 0 0 1 1 1 1 1 1 1 2 2 2 1 1 1 1 1 1 1 2 2 4 5
0 0 0 0 0 0 0 0 0 0 0 0 0 0 0 0 0 0 0 1 1 2 1 1 1 1 2 2 2 1 1 2 2 2 2 2 2 1 1 2 2 3 3 3
0 0 0 0 0 0 0 0 0 0 0 0 0 0 0 0 0 0 0 0 0 0 1 1 2 1 2 2 2 1 3 3 1 1 1 1 2 1 1 1 1 1 1 1
0 0 0 0 0 0 0 0 0 0 0 0 0 0 0 0 0 0 0 0 0 0 0 0 1 1 2 2 2 1 2 1 1 1 1 1 1 1 1 0 0 0 0 1
0 0 0 0 0 0 0 0 0 0 0 0 0 0 0 0 0 0 0 0 0 0 0 0 0 0 0 0 1 0 1 0 0 0 0 0 0 0 1 1 0 0 1 0
0 0 0 0 0 0 0 0 0 0 0 0 0 0 0 0 0 0 0 0 0 0 0 0 0 0 0 0 0 1 0 1 0 0 0 0 0 0 0 0 0 0 0 1
Wind_Speed_500mb
37 24 29 38 22 22 21 25 23 17 9 11 13 12 17 34 32 40 49 51 54 54 52 54 55 52 50 49 45 46 46 46 45 40 35 31 32 28 27 22 21 22 13 8
27 26 33 35 18 24 29 32 29 27 12 20 12 14 17 33 27 32 37 46 48 49 51 54 58 58 55 53 50 47 47 48 46 41 34 35 30 33 31 25 20 22 18 10
25 35 17 18 27 31 31 31 36 20 21 36 15 24 15 17 24 24 31 37 46 49 50 54 60 61 58 56 55 52 51 49 48 42 34 30 28 34 16 16 18 25 21 16
18 20 13 23 26 23 30 27 27 16 25 13 3 5 18 24 22 17 26 35 43 50 49 52 59 62 63 59 55 54 53 53 48 49 37 38 30 29 27 23 20 25 25 24
4 6 13 19 12 18 27 26 23 28 26 32 21 10 27 29 13 18 25 32 41 51 53 54 56 60 60 58 58 57 56 56 51 50 49 40 39 31 26 23 21 26 27 28
27 2 13 21 16 19 21 19 24 28 26 25 29 20 14 26 6 8 5 11 35 50 55 51 51 54 57 59 60 60 58 60 57 53 51 53 42 36 35 27 27 21 24 27
18 19 20 8 33 17 21 29 20 21 22 23 28 13 13 26 15 18 13 11 20 45 59 57 55 58 58 61 62 61 63 64 61 58 53 52 55 43 37 26 28 27 24 27
12 22 19 11 11 27 28 26 21 21 19 21 17 10 13 9 26 20 16 14 20 43 61 61 58 57 58 60 61 62 64 67 58 61 58 52 50 44 39 36 33 24 28 29
3 8 10 4 12 13 22 22 29 23 27 25 16 21 7 28 23 22 19 16 7 34 57 59 58 55 56 58 61 64 62 64 64 57 55 52 48 45 41 41 39 31 28 26
9 22 15 17 12 33 18 24 23 16 21 15 18 13 3 23 16 24 22 19 14 17 41 51 54 54 53 54 58 60 62 63 61 52 51 50 49 46 48 44 48 41 32 35
24 25 14 19 13 23 15 23 20 23 18 21 22 16 23 18 21 20 24 21 12 1 20 32 46 50 50 50 51 55 56 55 51 49 47 45 45 45 48 44 47 47 42 39
19 20 25 29 8 4 18 24 21 18 24 20 17 9 19 17 19 19 23 22 14 16 8 10 28 43 49 49 49 50 49 47 46 42 45 44 42 43 45 48 44 44 46 49
26 16 23 20 26 23 10 3 15 25 23 23 21 4 10 16 18 18 19 20 20 13 12 15 31 29 38 42 41 44 44 43 39 38 39 40 41 44 46 46 49 46 49 51
16 29 32 23 33 23 16 28 23 25 18 26 22 4 21 13 9 9 14 15 18 15 14 14 23 10 21 27 37 37 36 36 33 32 31 34 39 40 42 44 46 49 53 53
16 28 29 30 23 27 30 31 31 31 30 29 35 34 20 19 14 12 7 7 14 16 16 22 19 23 25 25 25 27 30 27 19 19 17 20 26 35 41 45 48 49 56 57
21 26 25 33 30 35 39 38 38 35 36 36 35 35 30 32 12 6 7 3 8 18 21 20 23 22 32 29 25 39 45 42 40 11 13 7 18 36 40 48 59 58 61 60
26 25 24 32 28 32 23 36 32 26 27 29 32 30 18 14 14 17 17 10 7 10 16 24 25 24 25 23 18 34 43 30 38 70 72 34 17 40 45 44 49 53 58 58
25 25 22 23 26 32 29 18 12 18 20 20 21 19 19 10 20 10 19 24 16 12 10 9 16 19 23 23 22 26 26 31 22 28 29 43 28 61 34 33 43 51 51 55
22 18 20 23 23 25 33 14 7 14 18 27 9 6 4 12 12 17 15 14 17 20 17 18 21 18 17 18 18 20 23 31 31 23 18 24 22 9 14 20 25 34 41 48
21 18 19 19 20 19 17 17 13 12 17 26 27 24 18 11 15 11 12 7 11 17 21 23 20 18 16 19 19 21 23 23 20 20 18 13 7 7 6 7 12 17 26 37
18 14 24 21 21 22 15 8 7 18 9 17 23 24 27 21 29 22 23 6 9 12 20 22 21 23 21 20 19 19 19 19 20 19 16 15 13 10 9 14 21 28 23 30
17 19 19 19 22 30 17 9 11 17 19 20 18 23 24 24 30 29 23 19 22 20 22 23 28 30 29 27 25 26 23 21 20 16 17 16 17 17 15 21 25 31 34 29
18 20 18 16 10 5 7 12 13 16 23 26 27 33 36 39 35 32 31 27 26 29 27 27 30 32 33 25 29 28 29 32 27 22 21 20 19 20 21 24 30 25 33 29
23 20 14 22 22 20 24 23 29 27 25 30 33 40 42 43 42 45 47 44 40 36 33 29 28 31 31 31 31 27 30 32 26 22 21 19 20 24 28 34 31 33 31 33
16 9 13 24 28 37 38 22 16 30 35 39 38 38 38 40 45 49 50 47 48 46 45 43 38 35 32 32 31 27 29 26 22 20 18 19 24 30 34 38 40 40 39 39
24 25 20 23 25 23 28 33 36 39 37 33 32 38 41 44 47 46 48 50 53 54 52 44 42 43 39 35 34 31 30 26 23 20 22 25 27 34 40 45 50 50 46 41
Wind_Direction_500mb
216 260 255 254 359 349 312 296 302 320 49 302 252 264 183 173 200 195 198 199 199 204 201 203 202 200 199 199 199 200 197 196 195 197 200 206 219 219 225 219 230 242 240 251
255 249 260 284 344 293 287 285 275 259 18 295 295 273 263 151 192 203 202 193 201 199 199 201 201 201 201 200 199 198 197 198 196 200 204 214 218 228 213 223 224 232 233 223
257 288 6 314 282 279 265 264 288 355 314 270 287 237 121 122 163 185 201 202 199 198 199 198 200 202 201 200 200 200 199 202 202 196 208 216 229 248 228 213 234 228 223 227
266 288 320 279 269 271 272 288 288 303 281 293 171 80 50 267 140 170 184 207 200 198 200 196 200 201 202 203 203 202 203 203 207 203 208 215 221 234 245 233 227 242 225 221
266 289 245 248 296 344 297 327 292 281 275 270 220 211 147 219 106 144 178 193 216 196 199 195 200 202 203 201 202 201 201 205 204 216 205 220 222 233 254 220 242 240 226 225
273 241 267 290 316 263 291 276 253 242 254 265 268 248 207 130 96 38 90 210 205 207 198 200 197 200 201 201 200 200 202 207 209 213 220 210 220 226 230 227 212 233 226 226
190 220 215 233 271 209 231 248 250 217 216 235 245 171 285 81 55 25 354 296 228 205 192 197 193 197 199 200 201 202 203 210 213 214 224 224 227 224 220 221 231 230 210 224
300 176 199 146 330 339 309 327 309 321 297 322 11 226 100 70 59 11 0 312 282 192 190 194 195 197 197 199 200 203 204 215 211 218 224 230 230 223 225 227 223 222 224 219
315 187 120 258 329 313 331 274 349 311 296 282 284 298 232 84 48 29 20 353 303 184 189 191 195 197 197 200 201 202 204 219 220 219 224 228 232 224 218 216 230 219 226 222
13 288 162 144 239 250 254 329 293 262 251 258 279 250 263 74 54 35 21 19 11 191 197 189 198 199 200 202 203 204 205 218 223 213 218 220 224 228 216 217 214 216 221 219
311 292 278 208 279 351 310 287 252 254 301 307 286 68 54 73 53 39 30 38 61 12 200 205 204 206 205 205 205 206 209 209 211 211 214 214 215 217 221 213 220 217 214 222
341 315 295 293 20 335 281 288 299 276 278 254 267 69 70 40 65 44 53 52 85 91 31 353 232 213 208 211 210 209 211 212 215 214 212 218 214 213 216 215 216 219 217 221
334 302 309 291 178 154 243 285 315 302 282 283 302 102 93 84 70 50 52 56 77 81 164 91 318 231 205 204 210 211 209 213 214 215 216 215 220 216 215 220 214 219 227 225
298 274 277 299 321 335 305 298 302 297 280 295 282 12 157 105 61 44 53 66 73 107 97 100 260 215 192 204 201 200 203 206 208 207 213 220 221 223 222 222 226 217 228 234
266 279 288 293 299 293 290 283 278 275 281 288 299 309 326 354 34 25 354 72 101 104 135 170 182 174 170 170 172 180 180 170 166 176 203 227 237 233 230 224 227 230 222 234
260 271 276 277 278 279 272 270 273 267 269 266 270 276 287 301 129 240 247 218 144 130 131 138 141 151 146 150 155 160 152 142 129 168 178 184 269 253 236 236 225 228 235 232
284 289 291 281 296 291 284 261 263 264 266 268 267 267 277 290 302 226 208 227 187 152 140 143 143 145 145 159 130 185 209 228 211 229 244 251 297 266 253 242 241 237 235 234
271 265 273 276 282 270 274 28 334 315 304 297 307 285 283 311 290 272 217 189 198 192 159 141 131 136 136 135 137 122 130 158 170 193 229 238 231 268 262 254 243 244 240 240
253 266 270 264 255 269 274 263 208 331 320 335 285 283 276 261 275 272 218 208 219 212 206 185 168 143 138 142 133 122 125 137 145 146 160 185 198 246 267 266 271 259 248 242
256 243 261 250 269 281 52 58 6 332 265 15 348 335 335 346 284 82 67 183 216 201 200 192 182 181 177 169 163 155 155 155 157 163 158 169 190 225 260 316 311 289 264 269
217 249 248 244 252 265 57 3 327 261 39 1 1 351 346 327 334 26 340 343 296 250 217 213 214 213 204 207 203 192 184 181 178 179 189 201 214 250 289 316 322 321 304 274
245 237 251 229 268 271 43 285 297 7 332 341 340 338 331 320 316 318 320 314 311 295 256 235 234 232 220 214 210 210 217 211 213 215 223 237 260 276 274 295 313 315 314 297
242 267 293 311 2 68 306 330 343 325 310 305 309 308 307 304 301 302 300 293 283 281 275 257 253 248 237 206 216 218 214 213 226 231 240 241 250 262 262 276 297 300 299 298
231 204 243 295 278 294 320 313 304 302 308 309 302 301 303 296 294 294 292 289 288 283 279 275 265 251 246 235 219 227 218 225 220 222 232 247 262 272 275 276 280 283 290 294
281 115 245 263 267 272 267 276 305 309 301 301 301 299 296 297 294 291 288 287 284 280 276 269 263 259 256 244 230 228 218 217 216 223 233 248 267 271 273 271 276 273 280 278
264 250 243 262 293 315 301 299 298 295 296 295 298 302 299 295 293 293 290 285 281 279 277 272 261 256 254 247 234 227 220 219 220 231 260 265 269 273 271 273 277 273 268 269
Wind_Speed_850mb
37 24 29 38 22 22 21 25 23 17 9 11 13 12 17 34 32 40 49 51 54 54 52 54 55 52 50 49 45 46 46 46 45 40 35 31 32 28 27 22 21 22 13 8
27 26 33 35 18 24 29 32 29 27 12 20 12 14 17 33 27 32 37 46 48 49 51 54 58 58 55 53 50 47 47 48 46 41 34 35 30 33 31 25 20 22 18 10
25 35 17 18 27 31 31 31 36 20 21 36 15 24 15 17 24 24 31 37 46 49 50 54 60 61 58 56 55 52 51 49 48 42 34 30 28 34 16 16 18 25 21 16
18 20 13 23 26 23 30 27 27 16 25 13 3 5 18 24 22 17 26 35 43 50 49 52 59 62 63 59 55 54 53 53 48 49 37 38 30 29 27 23 20 25 25 24
4 6 13 19 12 18 27 26 23 28 26 32 21 10 27 29 13 18 25 32 41 51 53 54 56 60 60 58 58 57 56 56 51 50 49 40 39 31 26 23 21 26 27 28
27 2 13 21 16 19 21 19 24 28 26 25 29 20 14 26 6 8 5 11 35 50 55 51 51 54 57 59 60 60 58 60 57 53 51 53 42 36 35 27 27 21 24 27
18 19 20 8 33 17 21 29 20 21 22 23 28 13 13 26 15 18 13 11 20 45 59 57 55 58 58 61 62 61 63 64 61 58 53 52 55 43 37 26 28 27 24 27
12 22 19 11 11 27 28 26 21 21 19 21 17 10 13 9 26 20 16 14 20 43 61 61 58 57 58 60 61 62 64 67 58 61 58 52 50 44 39 36 33 24 28 29
3 8 10 4 12 13 22 22 29 23 27 25 16 21 7 28 23 22 19 16 7 34 57 59 58 55 56 58 61 64 62 64 64 57 55 52 48 45 41 41 39 31 28 26
9 22 15 17 12 33 18 24 23 16 21 15 18 13 3 23 16 24 22 19 14 17 41 51 54 54 53 54 58 60 62 63 61 52 51 50 49 46 48 44 48 41 32 35
24 25 14 19 13 23 15 23 20 23 18 21 22 16 23 18 21 20 24 21 12 1 20 32 46 50 50 50 51 55 56 55 51 49 47 45 45 45 48 44 47 47 42 39
19 20 25 29 8 4 18 24 21 18 24 20 17 9 19 17 19 19 23 22 14 16 8 10 28 43 49 49 49 50 49 47 46 42 45 44 42 43 45 48 44 44 46 49
26 16 23 20 26 23 10 3 15 25 23 23 21 4 10 16 18 18 19 20 20 13 12 15 31 29 38 42 41 44 44 43 39 38 39 40 41 44 46 46 49 46 49 51
16 29 32 23 33 23 16 28 23 25 18 26 22 4 21 13 9 9 14 15 18 15 14 14 23 10 21 27 37 37 36 36 33 32 31 34 39 40 42 44 46 49 53 53
16 28 29 30 23 27 30 31 31 31 30 29 35 34 20 19 14 12 7 7 14 16 16 22 19 23 25 25 25 27 30 27 19 19 17 20 26 35 41 45 48 49 56 57
21 26 25 33 30 35 39 38 38 35 36 36 35 35 30 32 12 6 7 3 8 18 21 20 23 22 32 29 25 39 45 42 40 11 13 7 18 36 40 48 59 58 61 60
26 25 24 32 28 32 23 36 32 26 27 29 32 30 18 14 14 17 17 10 7 10 16 24 25 24 25 23 18 34 43 30 38 70 72 34 17 40 45 44 49 53 58 58
25 25 22 23 26 32 29 18 12 18 20 20 21 19 19 10 20 10 19 24 16 12 10 9 16 19 23 23 22 26 26 31 22 28 29 43 28 61 34 33 43 51 51 55
22 18 20 23 23 25 33 14 7 14 18 27 9 6 4 12 12 17 15 14 17 20 17 18 21 18 17 18 18 20 23 31 31 23 18 24 22 9 14 20 25 34 41 48
21 18 19 19 20 19 17 17 13 12 17 26 27 24 18 11 15 11 12 7 11 17 21 23 20 18 16 19 19 21 23 23 20 20 18 13 7 7 6 7 12 17 26 37
18 14 24 21 21 22 15 8 7 18 9 17 23 24 27 21 29 22 23 6 9 12 20 22 21 23 21 20 19 19 19 19 20 19 16 15 13 10 9 14 21 28 23 30
17 19 19 19 22 30 17 9 11 17 19 20 18 23 24 24 30 29 23 19 22 20 22 23 28 30 29 27 25 26 23 21 20 16 17 16 17 17 15 21 25 31 34 29
18 20 18 16 10 5 7 12 13 16 23 26 27 33 36 39 35 32 31 27 26 29 27 27 30 32 33 25 29 28 29 32 27 22 21 20 19 20 21 24 30 25 33 29
23 20 14 22 22 20 24 23 29 27 25 30 33 40 42 43 42 45 47 44 40 36 33 29 28 31 31 31 31 27 30 32 26 22 21 19 20 24 28 34 31 33 31 33
16 9 13 24 28 37 38 22 16 30 35 39 38 38 38 40 45 49 50 47 48 46 45 43 38 35 32 32 31 27 29 26 22 20 18 19 24 30 34 38 40 40 39 39
24 25 20 23 25 23 28 33 36 39 37 33 32 38 41 44 47 46 48 50 53 54 52 44 42 43 39 35 34 31 30 26 23 20 22 25 27 34 40 45 50 50 46 41
Wind_Direction_850mb
216 260 255 254 359 349 312 296 302 320 49 302 252 264 183 173 200 195 198 199 199 204 201 203 202 200 199 199 199 200 197 196 195 197 200 206 219 219 225 219 230 242 240 251
255 249 260 284 344 293 287 285 275 259 18 295 295 273 263 151 192 203 202 193 201 199 199 201 201 201 201 200 199 198 197 198 196 200 204 214 218 228 213 223 224 232 233 223
257 288 6 314 282 279 265 264 288 355 314 270 287 237 121 122 163 185 201 202 199 198 199 198 200 202 201 200 200 200 199 202 202 196 208 216 229 248 228 213 234 228 223 227
266 288 320 279 269 271 272 288 288 303 281 293 171 80 50 267 140 170 184 207 200 198 200 196 200 201 202 203 203 202 203 203 207 203 208 215 221 234 245 233 227 242 225 221
266 289 245 248 296 344 297 327 292 281 275 270 220 211 147 219 106 144 178 193 216 196 199 195 200 202 203 201 202 201 201 205 204 216 205 220 222 233 254 220 242 240 226 225
273 241 267 290 316 263 291 276 253 242 254 265 268 248 207 130 96 38 90 210 205 207 198 200 197 200 201 201 200 200 202 207 209 213 220 210 220 226 230 227 212 233 226 226
190 220 215 233 271 209 231 248 250 217 216 235 245 171 285 81 55 25 354 296 228 205 192 197 193 197 199 200 201 202 203 210 213 214 224 224 227 224 220 221 231 230 210 224
300 176 199 146 330 339 309 327 309 321 297 322 11 226 100 70 59 11 0 312 282 192 190 194 195 197 197 199 200 203 204 215 211 218 224 230 230 223 225 227 223 222 224 219
315 187 120 258 329 313 331 274 349 311 296 282 284 298 232 84 48 29 20 353 303 184 189 191 195 197 197 200 201 202 204 219 220 219 224 228 232 224 218 216 230 219 226 222
13 288 162 144 239 250 254 329 293 262 251 258 279 250 263 74 54 35 21 19 11 191 197 189 198 199 200 202 203 204 205 218 223 213 218 220 224 228 216 217 214 216 221 219
311 292 278 208 279 351 310 287 252 254 301 307 286 68 54 73 53 39 30 38 61 12 200 205 204 206 205 205 205 206 209 209 211 211 214 214 215 217 221 213 220 217 214 222
341 315 295 293 20 335 281 288 299 276 278 254 267 69 70 40 65 44 53 52 85 91 31 353 232 213 208 211 210 209 211 212 215 214 212 218 214 213 216 215 216 219 217 221
334 302 309 291 178 154 243 285 315 302 282 283 302 102 93 84 70 50 52 56 77 81 164 91 318 231 205 204 210 211 209 213 214 215 216 215 220 216 215 220 214 219 227 225
298 274 277 299 321 335 305 298 302 297 280 295 282 12 157 105 61 44 53 66 73 107 97 100 260 215 192 204 201 200 203 206 208 207 213 220 221 223 222 222 226 217 228 234
266 279 288 293 299 293 290 283 278 275 281 288 299 309 326 354 34 25 354 72 101 104 135 170 182 174 170 170 172 180 180 170 166 176 203 227 237 233 230 224 227 230 222 234
260 271 276 277 278 279 272 270 273 267 269 266 270 276 287 301 129 240 247 218 144 130 131 138 141 151 146 150 155 160 152 142 129 168 178 184 269 253 236 236 225 228 235 232
284 289 291 281 296 291 284 261 263 264 266 268 267 267 277 290 302 226 208 227 187 152 140 143 143 145 145 159 130 185 209 228 211 229 244 251 297 266 253 242 241 237 235 234
271 265 273 276 282 270 274 28 334 315 304 297 307 285 283 311 290 272 217 189 198 192 159 141 131 136 136 135 137 122 130 158 170 193 229 238 231 268 262 254 243 244 240 240
253 266 270 264 255 269 274 263 208 331 320 335 285 283 276 261 275 272 218 208 219 212 206 185 168 143 138 142 133 122 125 137 145 146 160 185 198 246 267 266 271 259 248 242
256 243 261 250 269 281 52 58 6 332 265 15 348 335 335 346 284 82 67 183 216 201 200 192 182 181 177 169 163 155 155 155 157 163 158 169 190 225 260 316 311 289 264 269
217 249 248 244 252 265 57 3 327 261 39 1 1 351 346 327 334 26 340 343 296 250 217 213 214 213 204 207 203 192 184 181 178 179 189 201 214 250 289 316 322 321 304 274
245 237 251 229 268 271 43 285 297 7 332 341 340 338 331 320 316 318 320 314 311 295 256 235 234 232 220 214 210 210 217 211 213 215 223 237 260 276 274 295 313 315 314 297
242 267 293 311 2 68 306 330 343 325 310 305 309 308 307 304 301 302 300 293 283 281 275 257 253 248 237 206 216 218 214 213 226 231 240 241 250 262 262 276 297 300 299 298
231 204 243 295 278 294 320 313 304 302 308 309 302 301 303 296 294 294 292 289 288 283 279 275 265 251 246 235 219 227 218 225 220 222 232 247 262 272 275 276 280 283 290 294
281 115 245 263 267 272 267 276 305 309 301 301 301 299 296 297 294 291 288 287 284 280 276 269 263 259 256 244 230 228 218 217 216 223 233 248 267 271 273 271 276 273 280 278
264 250 243 262 293 315 301 299 298 295 296 295 298 302 299 295 293 293 290 285 281 279 277 272 261 256 254 247 234 227 220 219 220 231 260 265 269 273 271 273 277 273 268 269